sat.trackr.live / text

‹ back to catalog

IRIDE-MS1-EAGLET 2-1

NORAD 66695 · 2025-276AF

PAYLOAD ACTIVE UNKNOWN

§ Identity

Operator
Country
IT
Launch date
2025-11-28
Launch site
AFWTR
Launch vehicle
Mass (kg)
RCS (m²)

External: N2YO · Heavens-Above · Gunter

§ Orbital elements

Epoch: 2026-09-20T04:28:45.029856Z

Period
94.63 min
Inclination
97.4117°
Eccentricity
0.0002171
Mean motion
15.21769558 rev/d
Perigee alt
499.0 km
Apogee alt
502.0 km
Semi-major
6,878.6 km
B*
1.3967e-4
RAAN
335.5925°
Arg perigee
64.6906°
Mean anomaly
295.4555°
Rev number
4,488

§ Raw data

IRIDE-MS1-EAGLET 2-11 66695U 25276AF  26263.18663229  .00003098  00000+0  13967-3 0  99982 66695  97.4117 335.5925 0002171  64.6906 295.4555 15.21769558 44885

JSON: /api/v1/satellites/66695 · /tle

For live sub-satellite position, see the globe view (requires WebGL).

§ Visibility from observer

Set your observer location to see the next 7 days of passes ≥ 10°. The values pass through the URL so the page stays shareable.

No JS? Fill the form by hand. The geolocation button needs JavaScript.